Flag for French Polynesia Weather past 2 weeks in Gambier Islands, French Polynesia

Now
76 °F

Mild.


Feels Like: 76 °F
Forecast: 77 / 81 °F
Wind: 7 mph from North

Location: Rikitea

Current Time: Dec 27, 2014 at 10:30:46 PM

Latest Report: Dec 27, 2014 at 9:00 PM


Visibility: N/A

Pressure: 29.98 "Hg

Humidity: 85%

Dew point: 71 °F

Location of Gambier IslandsLocation

Historic Weather in Gambier Islands — Graph

°F

Gambier Islands temperature yesterday

Maximum temperature yesterday: 81 °F (at 11:00 AM)
Minimum temperature yesterday: 74 °F (at 4:00 AM)
Average temperature yesterday: 77 °F

Past Weeks' High & Low Weather Summary

 TemperatureHumidityPressure
High83 °F (Dec 13, 2:00 PM)96% (Dec 20, 6:00 PM)30.10 "Hg (Dec 20, 6:00 PM)
Low71 °F (Dec 20, 12:00 AM)61% (Dec 13, 2:00 PM)29.79 "Hg (Dec 22, 4:00 PM)
Average76 °F85%29.97 "Hg
* Reported Dec 12 9:00 PM — Dec 27 9:00 PM, Gambier Islands, Weather by CustomWeather, © 2014

Note: Actual official high and low records may vary slightly from our data, if they occured in-between our weather recording intervals... More about our weather records

Advertising

Gambier Islands weather history for previous 24 hours

 ConditionsComfort  
Time TempWeatherWind HumidityBarometerVisibility
9:00 PM
Dec 27
76 °FMild.7 mph85%29.98 "HgN/A
8:00 PM76 °FMild.6 mph84%29.97 "HgN/A
7:00 PM76 °FMild.5 mph83%29.95 "HgN/A
5:00 PM77 °FOvercast.3 mph82%29.94 "Hg19 mi
4:00 PM78 °FOvercast.6 mph81%29.93 "Hg25 mi
3:00 PM78 °FOvercast.5 mph80%29.93 "Hg25 mi
2:00 PM78 °FPartly sunny.6 mph77%29.95 "Hg25 mi
1:00 PM80 °FOvercast.6 mph76%29.96 "Hg25 mi
12:00 PM80 °FPartly sunny.8 mph79%29.97 "Hg25 mi
11:00 AM82 °FScattered clouds.7 mph74%29.99 "Hg25 mi
10:00 AM81 °FPassing clouds.8 mph75%30.00 "Hg25 mi
9:00 AM80 °FPassing clouds.8 mph75%30.01 "Hg25 mi
8:00 AM78 °FPassing clouds.8 mph79%30.02 "Hg19 mi
7:00 AM77 °FPassing clouds.7 mph80%30.02 "Hg12 mi
6:00 AM75 °FPassing clouds.7 mph85%30.02 "Hg12 mi
5:00 AM74 °FMild.6 mph87%30.01 "HgN/A
4:00 AM74 °FMild.5 mph86%29.99 "HgN/A
3:00 AM74 °FMild.6 mph87%29.99 "HgN/A
2:00 AM74 °FMild.5 mph86%30.00 "HgN/A
1:00 AM74 °FMild.6 mph85%30.02 "HgN/A
12:00 AM74 °FMild.5 mph86%30.04 "HgN/A
11:00 PM
Dec 26
75 °FMild.5 mph85%30.06 "HgN/A
10:00 PM75 °FMild.3 mph84%30.07 "HgN/A
Weather by CustomWeather, © 2014

See weather overviewHow to use our weather pages